Location: Fort Worth, Tx
(32.7431°N, 97.3695°W)
Time: 05:13:47
(UTC-05:00)

Altair - Pass Details

Date: 09 October 2023
Orbit: 1501 x 1682 km, 47.2° (Epoch: 06 December)

Event Time Altitude Azimuth Distance (km) Brightness Sun altitude
Rises 02:58:57 0° 257° (WSW) 4,696 - -61.7°
Reaches altitude 10° 03:02:07 10° 262° (W) 3,736 - -61.4°
Maximum altitude 03:11:15 49° 336° (NNW) 1,978 - -60.6°
Exits shadow 03:18:41 18° 44° (NE) 3,293 9.4 -59.8°
Drops below altitude 10° 03:20:46 10° 50° (NE) 3,882 9.9 -59.6°
Sets 03:24:08 0° 56° (NE) 4,891 10.6 -59.2°
